{"data":{"norad_id":58935,"epoch":"2026-09-20T00:56:54.291264Z","epoch_age_seconds":195476,"freshness":"STALE","line1":"1 58935U 24027E   26263.03951726  .00001236  00000+0  47731-4 0  9994","line2":"2 58935  53.1595 125.5060 0001163  88.2686 271.8450 15.34391407147105","mean_motion":15.34391407,"eccentricity":0.0001163,"inclination_deg":53.1595,"raan_deg":125.506,"arg_perigee_deg":88.2686,"mean_anomaly_deg":271.845,"bstar":4.7731e-5,"rev_number":14710,"period_min":93.848283653742,"perigee_km":461.93318784292,"apogee_km":463.52437322347,"semimajor_km":6840.8657805332,"source":"CELESTRAK","updated_at":"2026-09-21T09:00:33.996601Z"}}